Regional Weather Roundup
Issued by NWS

Home | Current Version | Previous Version | Graphics & Text | Print | Product List | Glossary On
Versions: 1 2 3 4 5 6 7 8 9 10 11 12 13 14 15 16 17 18 19 20 21 22 23 24 25 26 27 28 29 30 31 32 33 34 35 36 37 38 39 40 41 42 43 44 45 46 47 48 49 50
000
ASUS45 KBOI 042110
RWRID

IDAHO REGIONAL WEATHER ROUNDUP
NATIONAL WEATHER SERVICE BOISE ID
300 PM MDT FRI SEP 04 2015

NOTE: "FAIR" INDICATES FEW OR NO CLOUDS BELOW 12000 FEET
WITH NO SIGNIFICANT WEATHER AND/OR OBSTRUCTIONS TO VISIBILITY

IDZ012-014-042200-
SOUTHWEST IDAHO


CITY           SKY/WX    TMP DP  RH WIND       PRES   REMARKS
BOISE          FAIR      71  40  32 VRB5      29.74F
CALDWELL       FAIR      70  37  30 CALM      29.76F
MOUNTAIN HOME  FAIR      72  40  31 SE6       29.73F
$$

IDZ016-017-042200-
SOUTHCENTRAL IDAHO


CITY           SKY/WX    TMP DP  RH WIND       PRES   REMARKS
BURLEY         FAIR      74  43  32 NE7       29.76F
JEROME         FAIR      67  44  43 NW8       29.78F
TWIN FALLS     FAIR      71  42  35 N10       29.78F
$$

IDZ019>023-042200-
SOUTHEAST IDAHO


CITY           SKY/WX    TMP DP  RH WIND       PRES   REMARKS
IDAHO FALLS    FAIR      76  41  28 VRB3      29.81F
POCATELLO      FAIR      76  41  28 W12       29.80F
REXBURG        FAIR      72  41  32 W6        29.82F
$$

IDZ006-010-011-018-031-032-042200-
CENTRAL IDAHO MOUNTAINS


CITY           SKY/WX    TMP DP  RH WIND       PRES   REMARKS
MCCALL         FAIR      64  31  28 W9        29.81F
HAILEY         PTSUNNY   68  43  40 SE9       29.85F
STANLEY          N/A     50  42  74 CALM      29.93F
SALMON         PTSUNNY   52  45  76 E5        29.92F
CHALLIS        CLOUDY    54  43  66 N3        29.91F
$$

IDZ002-004-006-007-026-042200-
NORTHERN IDAHO


CITY           SKY/WX    TMP DP  RH WIND       PRES   REMARKS
LEWISTON       FAIR      70  41  34 VRB3      29.83F
LOWELL           N/A     63  48  58 S10G18    29.83F
COEUR D`ALENE  FAIR      66  37  34 N9        29.87F
MULLAN PASS    PTSUNNY   52  34  50 VRB3      29.95F
$$



USA.gov is the U.S. government's official web portal to all federal, state and local government web resources and services.